Simultaneous Nadir Overpasses (SNOs) Predictions

Prediction of SNOs between AQUA and NPP Satellite Orbit:

Table of predicted SNOs for the next 14.0 days since TLE Epoch: 2/17/2024
Index Date (AQUA) Time (AQUA) Lat,Lon (AQUA) SZA (AQUA ) Date (NPP) Time (NPP) Lat,Lon (NPP) SZA (NPP ) Distance(km) Time Diff (sec)
1 02/18/2024 04:51:28 -81.11,-153.93 79.18 02/18/2024 04:50:46 -81.11,-153.81 79.17 2.08 42
2 02/18/2024 05:40:50 81.12, 13.99 100.78 02/18/2024 05:41:29 81.13, 14.15 100.73 2.86 39
3 02/20/2024 17:45:43 -81.09, 12.31 80.05 02/20/2024 17:44:40 -81.09, 12.29 80.01 0.27 63
4 02/20/2024 18:35:04 81.13,-179.44 99.86 02/20/2024 18:35:22 81.13,-179.38 99.84 1.11 18
5 02/23/2024 07:29:18 81.12, -13.07 98.95 02/23/2024 07:29:16 81.12, -12.98 98.94 1.45 2
6 02/25/2024 20:23:31 81.10, 153.11 98.05 02/25/2024 20:23:11 81.10, 152.96 98.08 2.64 20
7 02/25/2024 21:12:53 -81.13, -38.73 82.05 02/25/2024 21:13:54 -81.13, -38.90 82.06 2.92 61
8 02/28/2024 09:17:41 81.12, -40.16 97.05 02/28/2024 09:17:03 81.12, -40.04 97.06 2.06 38
9 02/28/2024 10:07:03 -81.15, 128.03 83.05 02/28/2024 10:07:46 -81.15, 128.11 83.09 1.53 43
10 03/01/2024 22:11:50 81.12, 126.38 96.07 03/01/2024 22:10:56 81.12, 126.51 96.08 2.30 54



Historial Predications of SNOs between AQUA and NPP
